Home > Weather > Fürth > Past weeks

Flag for Germany Past Weather in Fürth, Bavaria, Germany — Yesterday and Last 2 Weeks

Now
63 °F

Fog.


Feels Like: 63 °F
Forecast: 59 / 86 °F
Wind: No wind

Location: Nuernberg

Current Time: Aug 24, 2016 at 8:31:39 AM

Latest Report: Aug 24, 2016 at 7:50 AM


Visibility: N/A

Pressure: 30.30 "Hg

Humidity: 83%

Dew Point: 57 °F

Location of FürthLocation

Past Weather in Fürth — Graph

°F

Fürth Temperature Yesterday

Maximum temperature yesterday: 79 °F (at 4:50 PM)
Minimum temperature yesterday: 54 °F (at 6:50 AM)
Average temperature yesterday: 67 °F

High & Low Weather Summary for the Past Weeks

 TemperatureHumidityPressure
High81 °F (Aug 20, 2:20 PM)100% (Aug 11, 1:50 AM)30.42 "Hg (Aug 11, 1:50 AM)
Low39 °F (Aug 11, 5:50 AM)22% (Aug 18, 5:50 PM)29.80 "Hg (Aug 18, 3:20 PM)
Average63 °F72%30.13 "Hg
* Reported Aug 9 7:20 AM — Aug 24 7:20 AM, Fürth, Weather by CustomWeather, © 2016

Note: Actual official high and low records may vary slightly from our data, if they occured in-between our weather recording intervals... More about our weather records

Advertising

Fürth Weather History for the Previous 24 Hours

Scroll right to see more
 ConditionsComfort  
Time TempWeatherWind HumidityBarometerVisibility
7:20 AM
Wed, Aug 24
59 °FFog.No wind100%30.30 "HgN/A
6:50 AM57 °FFog.1 mph100%30.30 "HgN/A
6:20 AM55 °FFog.1 mph100%30.30 "HgN/A
5:50 AM55 °FFog.No wind100%30.30 "HgN/A
5:20 AM55 °FClear.No wind100%30.30 "Hg10 mi
4:50 AM57 °FClear.2 mph94%30.30 "Hg10 mi
4:20 AM57 °FClear.No wind100%30.30 "Hg10 mi
3:50 AM57 °FClear.1 mph100%30.30 "Hg10 mi
3:20 AM57 °FClear.No wind100%30.30 "Hg10 mi
2:50 AM57 °FClear.5 mph94%30.30 "Hg10 mi
2:20 AM61 °FClear.5 mph88%30.30 "Hg10 mi
1:50 AM61 °FClear.3 mph88%30.30 "Hg10 mi
1:20 AM61 °FPassing clouds.3 mph88%30.30 "HgN/A
12:50 AM61 °FClear.2 mph88%30.30 "Hg10 mi
12:20 AM63 °FClear.2 mph83%30.30 "Hg10 mi
11:50 PM
Tue, Aug 23
63 °FClear.6 mph83%30.30 "Hg10 mi
11:20 PM63 °FPassing clouds.3 mph83%30.30 "HgN/A
10:50 PM64 °FClear.No wind78%30.30 "Hg10 mi
10:20 PM64 °FClear.2 mph78%30.30 "Hg10 mi
9:50 PM66 °FClear.1 mph73%30.30 "Hg10 mi
9:20 PM68 °FClear.1 mph69%30.30 "Hg10 mi
8:50 PM70 °FSunny.1 mph60%30.30 "Hg10 mi
8:20 PM72 °FSunny.1 mph61%30.30 "Hg10 mi
7:50 PM75 °FSunny.2 mph54%30.30 "Hg10 mi
7:20 PM77 °FPassing clouds.3 mph47%30.30 "HgN/A
6:50 PM77 °FPassing clouds.3 mph47%30.30 "HgN/A
6:20 PM79 °FPassing clouds.3 mph51%30.30 "HgN/A
5:50 PM79 °FSunny.1 mph48%30.30 "Hg10 mi
5:20 PM79 °FPassing clouds.3 mph45%30.30 "HgN/A
4:50 PM79 °FSunny.2 mph48%30.30 "Hg10 mi
4:20 PM77 °FPassing clouds.5 mph47%30.33 "HgN/A
3:50 PM77 °FPassing clouds.3 mph51%30.33 "HgN/A
3:20 PM77 °FScattered clouds.5 mph47%30.33 "HgN/A
2:50 PM75 °FScattered clouds.3 mph54%30.33 "HgN/A
2:20 PM77 °FScattered clouds.5 mph51%30.36 "HgN/A
1:50 PM75 °FScattered clouds.3 mph54%30.36 "HgN/A
1:20 PM73 °FScattered clouds.2 mph53%30.36 "HgN/A
12:50 PM73 °FScattered clouds.2 mph57%30.36 "HgN/A
12:20 PM73 °FScattered clouds.2 mph61%30.39 "HgN/A
11:50 AM72 °FScattered clouds.2 mph61%30.39 "HgN/A
11:20 AM70 °FScattered clouds.1 mph64%30.39 "HgN/A
10:50 AM70 °FScattered clouds.2 mph64%30.39 "HgN/A
10:20 AM68 °FScattered clouds.1 mph69%30.42 "HgN/A
9:50 AM66 °FScattered clouds.3 mph68%30.42 "HgN/A
9:20 AM64 °FPassing clouds.3 mph78%30.42 "HgN/A
8:50 AM63 °FSunny.2 mph83%30.42 "Hg10 mi
8:20 AM61 °FSunny.5 mph88%30.42 "Hg10 mi
Weather by CustomWeather, © 2016

See weather overviewHow to use our weather pages